Location: Newark
(51.1667°N, 4.4833°E)
Time: 03:20:23
(UTC+00:00)

YUBILEINY - Visible Passes

Search period start: 11 December 2019 00:00
Search period end: 21 December 2019 00:00
Orbit: 1477 x 1509 km, 82.5° (Epoch: 10 December)

Date Brightness Start Highest point End Pass type
(mag) Time Alt. Az. Time Alt. Az. Time Alt. Az.
11 Dec ? 04:51:44 10° NNE 04:55:10 13° NE 04:58:35 10° ENE visible
11 Dec ? 06:46:52 10° N 06:55:03 42° ENE 07:03:12 10° SE visible
11 Dec ? 22:07:41 10° N 22:07:41 10° N 22:07:48 10° N visible
12 Dec ? 00:03:34 10° N 00:03:34 10° N 00:03:44 10° N visible
12 Dec ? 05:57:33 10° N 06:04:41 27° ENE 06:11:48 10° ESE visible
12 Dec ? 23:14:20 11° N 23:14:20 11° N 23:14:41 10° N visible
13 Dec ? 05:08:31 10° N 05:13:55 17° NE 05:19:17 10° E visible
13 Dec ? 22:25:05 11° N 22:25:05 11° N 22:25:22 10° N visible
14 Dec ? 04:20:34 10° NNE 04:22:42 11° NE 04:24:51 10° NE visible
14 Dec ? 06:14:58 10° N 06:22:56 37° ENE 06:30:50 10° SE visible
14 Dec ? 21:35:50 10° N 21:35:50 10° N 21:35:53 10° N visible
14 Dec ? 23:31:43 11° N 23:31:43 11° N 23:32:00 10° N visible
15 Dec ? 05:25:44 10° N 05:32:27 24° NE 05:39:08 10° ESE visible
15 Dec ? 22:42:27 11° N 22:42:27 11° N 22:42:51 10° N visible
16 Dec ? 04:36:52 10° N 04:41:33 15° NE 04:46:14 10° ENE visible
16 Dec ? 06:32:31 10° N 06:40:59 51° ENE 06:49:25 10° SE visible
16 Dec ? 21:53:10 11° N 21:53:10 11° N 21:53:29 10° N visible
17 Dec ? 05:43:08 10° N 05:50:47 32° ENE 05:58:23 10° ESE visible
17 Dec ? 21:03:53 10° N 21:03:53 10° N 21:03:56 10° N visible
17 Dec ? 22:59:46 11° N 22:59:46 11° N 23:00:14 10° N visible
18 Dec ? 04:53:58 10° N 05:00:11 21° NE 05:06:22 10° E visible
18 Dec ? 06:50:07 10° N 06:58:51 71° ENE 07:07:33 10° SSE visible
18 Dec ? 22:10:27 12° N 22:10:27 12° N 22:11:00 10° N visible
19 Dec ? 04:05:19 10° NNE 04:09:09 13° NE 04:12:59 10° ENE visible
19 Dec ? 06:00:37 10° N 06:08:54 45° ENE 06:17:09 10° SE visible
19 Dec ? 21:21:06 12° N 21:21:06 12° N 21:21:34 10° N visible
19 Dec ? 23:17:00 11° N 23:17:00 11° N 23:17:25 10° N visible
20 Dec ? 05:11:17 10° N 05:18:35 29° ENE 05:25:51 10° ESE visible
20 Dec ? 20:31:44 11° N 20:31:44 11° N 20:32:00 10° N visible
20 Dec ? 22:27:37 12° N 22:27:37 12° N 22:28:26 10° N visible
